Location: Bluff Heights
(33.7692°N, 118.1592°W)
Time: 06:08:22
(UTC+00:00)

SR - All Passes

Search period start: 31 July 2021 00:00
Search period end: 10 August 2021 00:00
Orbit: 577 x 877 km, 66.7° (Epoch: 30 July)

Date Brightness Start Highest point End Pass type
(mag) Time Alt. Az. Time Alt. Az. Time Alt. Az.
31 Jul - 00:07:48 10° NW 00:12:05 39° WSW 00:16:05 10° S daylight
31 Jul - 12:50:41 10° S 12:55:52 33° ESE 13:00:55 10° NE daylight
31 Jul - 14:32:40 10° WSW 14:37:53 33° WNW 14:42:56 10° N daylight
31 Jul - 23:17:45 10° NNW 23:22:25 82° ENE 23:26:43 10° SSE daylight
01 Aug - 12:03:00 10° SE 12:06:21 16° ESE 12:09:39 10° ENE visible
01 Aug - 13:42:06 10° SW 13:47:56 65° WNW 13:53:33 10° NNE daylight
01 Aug - 22:28:15 10° N 22:32:30 34° ENE 22:36:29 10° ESE daylight
02 Aug - 00:11:09 10° WNW 00:14:09 18° WSW 00:17:02 10° SSW daylight
02 Aug - 12:52:20 10° SSW 12:58:08 63° ESE 13:03:44 10° NNE daylight
02 Aug - 14:36:36 10° W 14:40:34 19° NW 14:44:27 10° N daylight
02 Aug - 21:39:26 10° NNE 21:42:22 16° NE 21:45:09 10° E daylight
02 Aug - 23:20:19 10° NW 23:24:39 43° WSW 23:28:43 10° S daylight
03 Aug - 12:03:26 10° SSE 12:08:29 30° ESE 12:13:23 10° NE visible
03 Aug - 13:45:09 10° WSW 13:50:27 35° WNW 13:55:33 10° N daylight
03 Aug - 22:30:20 10° NNW 22:34:57 75° ENE 22:39:15 10° SSE daylight
04 Aug - 11:15:58 10° SE 11:18:58 14° ESE 11:21:56 10° ENE visible
04 Aug - 12:54:40 10° SSW 13:00:31 70° WNW 13:06:08 10° NNE daylight
04 Aug - 14:42:53 10° NW 14:43:27 10° NW 14:44:00 10° NW daylight
04 Aug - 21:40:54 10° N 21:45:02 31° ENE 21:48:54 10° ESE daylight
04 Aug - 23:23:33 10° WNW 23:26:44 19° WSW 23:29:48 10° SSW daylight
05 Aug - 12:04:58 10° S 12:10:43 59° ESE 12:16:16 10° NE visible
05 Aug - 13:48:59 10° W 13:53:07 20° NW 13:57:08 10° N daylight
05 Aug - 20:52:13 10° NNE 20:54:52 15° NE 20:57:25 10° E daylight
05 Aug - 22:32:51 10° NW 22:37:13 47° WSW 22:41:20 10° S daylight
06 Aug - 11:16:10 10° SSE 11:21:05 28° ESE 11:25:52 10° NE visible
06 Aug - 12:57:38 10° SW 13:03:01 37° WNW 13:08:10 10° N daylight
06 Aug - 21:42:55 10° NNW 21:47:31 68° ENE 21:51:46 10° SE daylight
07 Aug - 10:29:00 10° SE 10:31:35 13° ESE 10:34:09 10° ENE visible
07 Aug - 12:07:14 10° SSW 12:13:06 75° WNW 12:18:42 10° NNE visible
07 Aug - 13:54:32 10° WNW 13:55:57 11° NW 13:57:21 10° NNW daylight
07 Aug - 20:53:33 10° N 20:57:33 29° NE 21:01:19 10° ESE daylight
07 Aug - 22:35:59 10° WNW 22:39:19 21° WSW 22:42:32 10° SSW daylight
08 Aug - 11:17:37 10° S 11:23:20 54° ESE 11:28:48 10° NE visible
08 Aug - 13:01:22 10° WSW 13:05:39 21° NW 13:09:48 10° N daylight
08 Aug - 20:05:01 10° NNE 20:07:22 14° NE 20:09:38 10° E daylight
08 Aug - 21:45:23 10° NW 21:49:47 52° WSW 21:53:55 10° S daylight
09 Aug - 10:28:56 10° SSE 10:33:41 26° ESE 10:38:19 10° NE visible
09 Aug - 12:10:08 10° SW 12:15:34 40° WNW 12:20:47 10° N visible
09 Aug - 20:55:31 10° NNW 21:00:02 61° ENE 21:04:16 10° SE daylight
